ARIANE 2 DEB, 33558

Orbit data source: Space-Track

ARIANE 2 DEB, 33558 is space debris in HEO originally from a launch on Fri, 27 Jan 1989 UTC launched from the French Guiana (FRGUI). Debris objects in space refer to the collection of defunct objects orbiting the Earth. Examples of debris include non-operational satellites, rocket bodies, and fragments generated from explosions, collisions, or faulty payload assembly.

Loading next visibility...
Identifier
33558, 1989-006BA
Orbit
HEO
Country
Flag of FRFR
Related business
Manufacturer
EADS/LV
Mission
Spacecraft
Bus & Motor
Unknown
Mass
Unknown
Launch date (UTC)
1989-01-27 (37 years ago)
Launch vehicle
Unknown
Launch site
French Guiana (FRGUI)
Object type
Payload
Rocket body
Debris
Shape & HBR
Unknown shape, 0.2 m
Radar Cross Section
Medium (>0.1 m² and <1 m²)

Expand to show TLE details & history
Last TLE update: 4 days ago

TLE from 4 days ago
0 ARIANE 2 DEB
1 33558U 89006BA  26064.98227238 -.00000162  00000-0  00000-0 0  9996
2 33558  10.5155   8.5948 6938456 199.2802 109.0958  2.21812868 18963
Epoch: 2026-03-05T23:34Z
TLE epoch observation values (Epoch: 2026-03-05T23:34:28.333Z)
Latitude
0.00001°
Longitude
-148.76654°
Altitude
30,983.008 km
Speed
2.3 km/s
True Right ascension
00h 34m 18s
True Declination
0° 00' 00"
Sunlit
Object was in daylight at epoch
Visualization orbit readout
Latitude
Unknown
Longitude
Unknown
Altitude
Unknown
Speed
Unknown
Apparent Right ascension
Unknown
Apparent Declination
Unknown
Sunlit
N/A
Visualization observer readout
Local Sidereal Time
19:46:06
Azimuth
Unknown
Elevation
Unknown
Doppler factor
Unknown
Orbital elements
Apogee altitude
35,697.464 km
Perigee altitude
1,226.824 km
Semi-major axis
24,840.281 km
Eccentricity
0.69385
Inclination
10.5155°
RAAN
8.5948°
Arg. of periapsis
199.2802°
True anomaly
160.73443°
Mean anomaly
109.0958°
Eccentric anomaly
136.47402°
Mean motion
0.55438 °/min
Orbital period
649.37 mins
BSTAR
0
Loading maneuver chart data...
Computing Atmospheric mass density...
Loading historical data...
Loading historical data...
Loading historical data...
Loading historical data...
Loading historical data...
Loading historical data...
Loading historical data...

Documentation

Showing up to 5 results
|